Alexander Atmore
Ranking Stats
Points History
Position History
Change History
Ranking Summary
Season Starting Points 1273
Results Count 75
Current Points (Calculated monthly) 1533
Current Points Season Change +260
Provisional (Calculated Daily) 1533
Provisional Season Change +260
Player Audit :: 75 Results
Opponent (Rating) Weight Date Your Rating Result Link Bonus +/-
June Nelson (1569) 0.5 27/03/2019 1524 WIN 0 5
Tumay Ekrem (2008) 0.5 27/03/2019 1524 LOSS 0 0
Elman Rustamov (1548) 0.5 27/03/2019 1524 WIN 0 4
Cason Kang (1298) 0.5 22/03/2019 1519 WIN 0 2
Matthew Squires (1163) 0.5 22/03/2019 1519 WIN 0 1
Mohamed Ahmad (1350) 0.5 22/03/2019 1519 WIN 0 2
Daniel Lines (1674) 0.5 13/03/2019 1502 WIN 0 9
Will Lines (1644) 0.5 13/03/2019 1502 WIN 0 7
Luigi Vanzan (833) 0.5 13/03/2019 1502 WIN 0 1
Stuart Sweeney (1578) 0.5 27/02/2019 1497 WIN 0 6
Max Shilo (1609) 0.5 27/02/2019 1497 LOSS 0 -1
Mohammed Raqueeb (1880) 0.5 27/02/2019 1497 LOSS 0 0
Mo Abou-Rayyah (1549) 0.5 18/02/2019 1495 LOSS 0 -2
Simona Stanynaite (1302) 0.5 18/02/2019 1495 WIN 0 2
Chris Alexander (1320) 0.5 18/02/2019 1495 WIN 0 2
Chris McKee (1889) 0.5 14/02/2019 1473 WIN 0 20
Sam Burrows (1330) 0.5 14/02/2019 1473 WIN 0 3
Lew Hodges (1679) 0.5 14/02/2019 1473 LOSS 0 -1
Colin Tibbles (1376) 0.5 06/02/2019 1453 WIN 0 3
Reuben Payne (1684) 0.5 06/02/2019 1453 WIN 0 11
Kiran Mistri (1527) 0.5 06/02/2019 1453 WIN 0 6
Pak-Leung Wan (1044) 0.5 29/01/2019 1449 WIN 0 1
Alireza Kamrani Masooleh (1583) 0.5 29/01/2019 1449 LOSS 0 -1
Jonathan Fallon (1468) 0.5 29/01/2019 1449 WIN 0 4
Haresh Barber (1439) 0.5 28/01/2019 1456 LOSS 0 -2
Adonis Gavrielides (1343) 0.5 28/01/2019 1456 LOSS 0 -4
Reuben Payne (1688) 0.5 28/01/2019 1456 LOSS 0 -1
Aman Kanwar (1236) 0.5 16/01/2019 1441 WIN 0 2
Frederic Fremion (1521) 0.5 16/01/2019 1441 WIN 0 6
Terese Johansson (1546) 0.5 16/01/2019 1441 WIN 0 7
Daniel Howard (2276) 0.5 15/01/2019 1422 LOSS 0 0
Richard Bond (1418) 0.5 15/01/2019 1422 WIN 0 4
Adam Lohiya (1728) 0.5 15/01/2019 1422 WIN 0 15
Lawrence Check (1207) 0.5 09/01/2019 1414 WIN 0 2
John Charles (1284) 0.5 09/01/2019 1414 WIN 0 3
Michael Walton (1303) 0.5 09/01/2019 1414 WIN 0 3
Tony Botelho (1431) 0.5 19/12/2018 1396 WIN 0 5
Martin Jones (1484) 0.5 19/12/2018 1396 WIN 0 6
James Woolf (1528) 0.5 19/12/2018 1396 WIN 0 7
Adam Fox (2137) 0.5 12/12/2018 1396 LOSS 0 0
Tom O’shea (1477) 0.5 12/12/2018 1396 LOSS 0 -2
Bankole Adeniji (1111) 0.5 12/12/2018 1396 WIN 0 2
Roy Tempest (1271) 0.5 11/12/2018 1378 WIN 0 3
Barna Bernad (1443) 0.5 11/12/2018 1378 WIN 0 6
David Calver (1557) 0.5 11/12/2018 1378 WIN 0 9
Chris Norris (1397) 0.5 04/12/2018 1377 LOSS 0 -2
Daniel Lines (1667) 0.5 04/12/2018 1377 LOSS 0 -1
Nick Carter (1389) 0.5 04/12/2018 1377 WIN 0 4
Max Shilo (1536) 0.5 21/11/2018 1335 WIN 0 11
Oleg Blyuss (1833) 0.5 21/11/2018 1335 WIN 0 20
Stuart Sweeney (1580) 0.5 21/11/2018 1335 WIN 0 11
Yoni Smith (1438) 0.5 19/11/2018 1315 WIN 0 7
Darren Lewis (1287) 0.5 19/11/2018 1315 WIN 0 4
Alan Marcus (1485) 0.5 19/11/2018 1315 WIN 0 9
Stanislaw Oprzynski (1819) 0.5 14/11/2018 1325 LOSS 0 0
Peng Zhang (2048) 0.5 14/11/2018 1325 LOSS 0 0
Frank Dewotor (858) 0.5 14/11/2018 1325 LOSS 0 -10
Daniel Shoop (1355) 0.5 29/10/2018 1317 WIN 0 5
Aman Kanwar (1240) 0.5 29/10/2018 1317 WIN 0 3
Simon Jameson (1664) 0.5 29/10/2018 1317 LOSS 0 0
Alireza Kamrani Masooleh (1585) 0.5 24/10/2018 1300 LOSS 0 -1
Keith James (1520) 0.5 24/10/2018 1300 WIN 0 11
Jonathan Fallon (1430) 0.5 24/10/2018 1300 WIN 0 7
Chris Alexander (1290) 0.5 22/10/2018 1294 WIN 0 4
Mo Abou-Rayyah (1373) 0.5 22/10/2018 1294 LOSS 0 -2
Simona Stanynaite (1289) 0.5 22/10/2018 1294 WIN 0 4
Guy Fernback (1874) 0.5 10/10/2018 1286 LOSS 0 0
Terese Johansson (1548) 0.5 10/10/2018 1286 LOSS 0 -1
Binh Tran (1460) 0.5 10/10/2018 1286 WIN 0 9
Michael Collins (1348) 0.5 08/10/2018 1272 WIN 0 6
Stuart Nickels (1254) 0.5 08/10/2018 1272 WIN 0 4
Steven McSweeney (1269) 0.5 08/10/2018 1272 WIN 0 4
Bing Siah (1712) 0.5 02/10/2018 1273 LOSS 0 0
James Lennard (1545) 0.5 02/10/2018 1273 LOSS 0 -1
Huaifang Cao (1619) 0.5 02/10/2018 1273 LOSS 0 0
Total Points:  260

<< Back to Ranking List

Cached Page Generated at

Share This Page
Help

Rankings Explained
The Table Tennis 365 ranking scheme is a cumulative point based system that produces an ordered list based on relative playing standards. Read more detailed information here.

About Your Rating
The rankings listed on this page are for Hertfordshire County Table Tennis Association. To see your ranking in other organisations please visit their website. To view your (or any other players) full ranking audit, click on the player name.

Why am I not on the list?
If you are not listed but you expect to be, there are a few reasons why.

1. Are you a member of this organisation, check your Table Tennis England membership record.
2. Check with the Hertfordshire County Table Tennis Association administrator to make sure you have met their criteria for inclusion.
3. You may not have a rating, this happens automatically usually it takes less than one month, so check with the Hertfordshire County Table Tennis Association administrator if you have played in more than 6 matches, with at least one win for a period of longer than one month.

How Ratings Are Calculated
A rating is based on your season starting points and then applying all the ranking changes accrued from every match played that is counted for ranking. If you play in multiple leagues the effect of all matches will be noticeable on your rating. Note: If the league you play in does not use TT365 league manager the results are not counted.

Periods Explained
Current period is based on the entire season's results which is from 1st August to the end of the last full month. You can view historic period data by clicking the more periods button. Provisional is based on the points from the current period, plus all calculated result to date. Click here to see when the scheduled ranking run dates.

Important
Note: Whilst Table Tennis 365 do power the Table Tennis England & Table Tennis Scotland national ranking systems, this ranking scheme is operated independently by Table Tennis 365. If you have queries relating to these rankings, please direct your query to your local league or club administrator, who will respond or feed queries that cannot be answered by them, to us. Do not contact Table Tennis England or Table Tennis Scotland about these ranking lists.